Starlink 3296

operational
NORAD ID: 50168 Int'l Des: 2021-125 Owner: SPXS Country: US Constellation: starlink
LEOCIRCULAR

Starlink 3296について

説明を読み込み中...

リアルタイム位置

3D地球を読み込み中...

次回通過

高度履歴

Altitude vs Time

uPlot chart will show altitude changes over time

軌道要素

1 50168U 21125N 25354.25003472 .01352711 00000-0 62990-2 0 9991
2 50168 53.2153 236.4939 0000818 82.9158 94.9741 15.80219304 5795
Epoch: Dec 20, 2025 • Age: 8 hours

現在のステータス

高度 332.1 km
速度 7.71 km/s
衛星直下点 -16.63°S, 81.51°W
打ち上げ日 Dec 18, 2021
運用期間 4 years
タイプ internet

技術仕様

分類 Payload
質量 290.00 kg
乾燥質量 270.00 kg
総質量 290.00 kg
長さ 0.20 m
直径 2.80 m
スパン 9.00 m
形状 Box + pan
製造者 SPXS
バスタイプ Starlink
フェーズステータス In Orbit
所有者/国 SPXS/US

大規模コンステレーション

Loading constellations...